Sioux Falls, SD

1:02 AM CDT on July 24, 2017 (GMT -0500)
Foss

Weather History for KFSD - April, 2014

Change the Weather History Date:

Monday, April 14, 2014

  Actual Average Record
Temperature  
Mean Temperature 30 °F 46 °F  
Max Temperature 41 °F 58 °F 91 °F (1954)
Min Temperature 19 °F 34 °F 11 °F (1928)
Degree Days  
Heating Degree Days 35 19  
Month to date heating degree days 305 310  
Since 1 July heating degree days 7753 7155  
Cooling Degree Days 0 0  
Month to date cooling degree days 0 0  
Year to date cooling degree days 0 0  
Moisture  
Dew Point 12 °F    
Average Humidity 56    
Maximum Humidity 88    
Minimum Humidity 24    
Precipitation  
Precipitation T in 0.10 in 1.45 in (1919)
Month to date precipitation 0.22 1.33  
Year to date precipitation 1.92 4.25  
Snow  
Snow T in 0.20 in 2.40 in (1983)
Month to date snowfall 2.6 2.7  
Since 1 July snowfall 44.5 42.6  
Snow Depth 0.00 in    
Sea Level Pressure  
Sea Level Pressure 30.19 in    
Wind  
Wind Speed 14 mph (North)    
Max Wind Speed 30 mph    
Max Gust Speed 36 mph    
Visibility 10 miles    
Events      
T = Trace of Precipitation, MM = Missing Value Source: NWS Daily Summary

Daily Weather History Graph

Daily Weather History Graph

Search for Another Location

Airport or City:

Trip Planner

Search our weather history database for the weather conditions in past years. The results will help you decide how hot, cold, wet, or windy it might be!

Date:

Astronomy

Apr. 14, 2014 Rise Set
Actual Time 6:45 AM CDT 8:09 PM CDT
Civil Twilight 6:16 AM CDT 8:39 PM CDT
Nautical Twilight 5:40 AM CDT 9:15 PM CDT
Astronomical Twilight 5:02 AM CDT 9:53 PM CDT
Moon 7:48 PM CDT (4/14) 6:20 AM CDT (4/14)
Length of Visible Light 14h 22m
Length of Day
13h 23m
Full, 100% of the Moon is Illuminated
Apr 14
Full
Apr 15
Full
Apr 22
Last Quarter
Apr 29
New
May 6
First Quarter

Hourly Weather History & Observations

Time (CDT) Temp. Windchill Dew Point Humidity Pressure Visibility Wind Dir Wind Speed Gust Speed Precip Events Conditions
12:56 AM 27.0 °F 12.2 °F 16.0 °F 63% 30.14 in 10.0 mi North 24.2 mph 38.0 mph N/A   Clear
1:56 AM 25.0 °F 10.6 °F 15.1 °F 66% 30.13 in 10.0 mi North 20.7 mph 29.9 mph N/A   Clear
2:56 AM 25.0 °F 10.9 °F 12.9 °F 60% 30.13 in 10.0 mi North 19.6 mph 35.7 mph N/A   Clear
3:56 AM 24.1 °F 10.1 °F 12.9 °F 62% 30.13 in 10.0 mi North 18.4 mph 31.1 mph N/A   Clear
4:56 AM 23.0 °F 8.7 °F 14.0 °F 68% 30.16 in 10.0 mi North 18.4 mph 28.8 mph N/A   Overcast
5:56 AM 23.0 °F 8.7 °F 14.0 °F 68% 30.17 in 10.0 mi North 18.4 mph 26.5 mph N/A   Mostly Cloudy
6:56 AM 23.0 °F 9.6 °F 12.9 °F 65% 30.20 in 10.0 mi NNW 16.1 mph - N/A   Mostly Cloudy
7:56 AM 24.1 °F 10.1 °F 10.9 °F 57% 30.21 in 10.0 mi North 18.4 mph - N/A   Mostly Cloudy
8:56 AM 27.0 °F 14.3 °F 10.0 °F 49% 30.22 in 10.0 mi North 17.3 mph - N/A   Mostly Cloudy
9:56 AM 30.0 °F 17.5 °F 6.1 °F 36% 30.23 in 10.0 mi North 19.6 mph 26.5 mph N/A   Scattered Clouds
10:56 AM 33.1 °F 24.4 °F 3.9 °F 29% 30.23 in 10.0 mi North 11.5 mph 23.0 mph N/A   Scattered Clouds
11:56 AM 35.1 °F 25.5 °F 3.0 °F 26% 30.23 in 10.0 mi North 15.0 mph 21.9 mph N/A   Mostly Cloudy
12:56 PM 35.1 °F 26.9 °F 3.0 °F 26% 30.22 in 10.0 mi NNE 11.5 mph 21.9 mph N/A   Mostly Cloudy
1:56 PM 37.9 °F 30.9 °F 3.9 °F 24% 30.20 in 10.0 mi NNW 10.4 mph 25.3 mph N/A   Mostly Cloudy
2:56 PM 39.9 °F 31.1 °F 7.0 °F 26% 30.19 in 10.0 mi NNW 17.3 mph 27.6 mph N/A   Mostly Cloudy
3:56 PM 41.0 °F 33.1 °F 9.0 °F 27% 30.18 in 10.0 mi NNW 15.0 mph 23.0 mph N/A   Mostly Cloudy
4:56 PM 37.0 °F 27.4 °F 9.0 °F 31% 30.18 in 10.0 mi North 17.3 mph 25.3 mph N/A   Mostly Cloudy
5:56 PM 33.1 °F 25.5 °F 15.1 °F 48% 30.18 in 10.0 mi WNW 9.2 mph - N/A   Mostly Cloudy
6:27 PM 34.0 °F 23.0 °F 14.0 °F 44% 30.13 in 10.0 mi North 18.4 mph - N/A   Mostly Cloudy
6:56 PM 35.1 °F 26.9 °F 14.0 °F 42% 30.19 in 10.0 mi North 11.5 mph - N/A   Mostly Cloudy
7:56 PM 33.1 °F 24.4 °F 12.9 °F 43% 30.19 in 10.0 mi NNW 11.5 mph - 0.00 in   Mostly Cloudy
8:56 PM 28.0 °F 19.3 °F 16.0 °F 61% 30.21 in 10.0 mi NNW 9.2 mph - N/A   Partly Cloudy
9:56 PM 24.1 °F 15.2 °F 16.0 °F 71% 30.23 in 10.0 mi North 8.1 mph - N/A   Partly Cloudy
10:56 PM 21.2 °F 13.6 °F 17.6 °F 86% 30.17 in 10.0 mi North 5.8 mph - N/A   Partly Cloudy
11:56 PM 23.0 °F 14.7 °F 19.4 °F 86% 30.17 in 10.0 mi NNE 6.9 mph - N/A   Clear